Date Time,Air Temp,Sky Temp,Clarity,Light Level,Rain Sensor,Readings
2016-11-14 00:00:05,15.7,1.8,13.9,0.9,2.7,111
2016-11-14 00:05:05,16.1,0.9,15.2,0.9,2.6,110
2016-11-14 00:10:06,16.1,-0.1,16.2,1.1,2.4,112
2016-11-14 00:15:06,16.0,-0.8,16.8,1.1,2.4,112
2016-11-14 00:20:06,15.9,-1.3,17.2,0.9,2.3,111
2016-11-14 00:25:06,15.9,-1.2,17.1,0.9,2.3,111
2016-11-14 00:30:06,15.9,-0.1,16.0,1.0,2.4,112
2016-11-14 00:35:06,15.9,1.1,14.8,0.8,2.3,112
2016-11-14 00:40:06,16.0,1.5,14.4,0.9,2.3,111
2016-11-14 00:45:06,16.1,2.7,13.4,0.7,2.3,111
2016-11-14 00:50:06,16.2,3.7,12.5,0.6,2.3,111
2016-11-14 00:55:06,16.1,2.5,13.7,0.6,2.3,112
2016-11-14 01:00:06,16.1,3.3,12.8,0.5,2.3,111
2016-11-14 01:05:06,16.2,4.2,11.9,0.4,2.3,112
2016-11-14 01:10:06,16.2,5.0,11.2,0.4,2.3,112
2016-11-14 01:15:06,16.4,5.1,11.2,0.4,2.3,111
2016-11-14 01:20:06,16.5,5.2,11.2,0.5,2.3,112
2016-11-14 01:25:06,16.5,4.9,11.6,0.5,2.3,112
2016-11-14 01:30:06,16.5,4.5,12.1,0.5,2.3,112
2016-11-14 01:35:06,16.4,4.6,11.8,0.6,2.4,112
2016-11-14 01:40:06,16.5,5.1,11.4,0.6,2.3,112
2016-11-14 01:45:06,16.5,4.9,11.6,0.6,2.3,112
2016-11-14 01:50:06,16.8,5.7,11.1,0.5,2.3,111
2016-11-14 01:55:06,16.9,5.2,11.7,0.5,2.3,112
2016-11-14 02:00:06,16.9,5.0,11.9,0.4,2.3,112
2016-11-14 02:05:06,16.9,4.9,11.9,0.4,2.4,111
2016-11-14 02:10:06,16.7,3.1,13.5,0.5,2.4,112
2016-11-14 02:15:06,16.3,1.7,14.6,0.6,2.3,112
2016-11-14 02:20:06,16.1,2.4,13.7,0.6,2.4,111
2016-11-14 02:25:06,15.9,3.3,12.7,0.4,2.3,112
2016-11-14 02:30:06,15.9,3.8,12.1,0.3,2.3,111
2016-11-14 02:35:06,15.9,4.0,11.8,0.3,2.3,111
2016-11-14 02:40:06,15.9,4.4,11.5,0.3,2.3,113
2016-11-14 02:45:06,16.3,3.8,12.5,0.4,2.3,111
2016-11-14 02:50:06,16.0,3.2,12.8,0.5,2.3,111
2016-11-14 02:55:06,16.0,3.3,12.7,0.4,2.3,111
2016-11-14 03:00:06,15.8,3.9,12.0,0.3,2.3,112
2016-11-14 03:05:06,15.7,4.1,11.6,0.2,2.3,112
2016-11-14 03:10:06,15.7,4.3,11.4,0.2,2.3,112
2016-11-14 03:15:06,15.8,4.2,11.5,0.2,2.3,112
2016-11-14 03:20:06,15.8,4.0,11.8,0.2,2.3,112
2016-11-14 03:25:06,15.7,4.0,11.8,0.2,2.3,111
2016-11-14 03:30:06,15.4,4.0,11.3,0.2,2.3,112
2016-11-14 03:35:06,15.7,4.5,11.2,0.2,2.3,112
2016-11-14 03:40:06,15.7,4.3,11.4,0.2,2.3,112
2016-11-14 03:45:06,15.7,3.3,12.5,0.3,2.3,111
2016-11-14 03:50:06,15.7,3.2,12.4,0.3,2.3,112
2016-11-14 03:55:06,15.6,3.2,12.5,0.2,2.3,111
2016-11-14 04:00:06,15.6,3.4,12.2,0.2,2.3,111
2016-11-14 04:05:06,15.5,2.5,13.1,0.2,2.3,111
2016-11-14 04:10:06,16.1,0.7,15.4,0.2,2.3,112
2016-11-14 04:15:06,15.4,-0.2,15.6,0.2,2.3,112
2016-11-14 04:20:06,15.3,0.2,15.1,0.2,2.3,112
2016-11-14 04:25:06,15.2,1.3,13.9,0.2,2.3,110
2016-11-14 04:30:06,15.2,1.9,13.3,0.2,2.3,112
2016-11-14 04:35:06,15.3,2.6,12.7,0.2,2.3,111
2016-11-14 04:40:06,15.4,2.6,12.9,0.2,2.3,111
2016-11-14 04:45:06,15.5,2.7,12.8,0.2,2.3,111
2016-11-14 04:50:06,15.5,3.4,12.1,0.2,2.3,112
2016-11-14 04:55:06,15.5,4.4,11.1,0.1,2.3,111
2016-11-14 05:00:06,15.6,4.2,11.4,0.1,2.3,112
2016-11-14 05:05:06,15.7,3.6,12.1,0.1,2.3,111
2016-11-14 05:10:06,15.7,3.9,11.9,0.1,2.3,112
2016-11-14 05:15:06,15.8,4.2,11.6,0.1,2.3,112
2016-11-14 05:20:06,15.8,3.9,11.9,0.1,2.3,112
2016-11-14 05:25:06,15.8,3.7,12.1,0.1,2.3,111
2016-11-14 05:30:06,15.7,3.6,12.1,0.1,2.3,112
2016-11-14 05:35:06,15.6,3.4,12.2,0.1,2.3,111
2016-11-14 05:40:06,15.6,4.3,11.3,0.1,2.3,111
2016-11-14 05:45:06,15.6,4.3,11.3,0.1,2.3,112
2016-11-14 05:50:06,15.7,3.1,12.6,0.1,2.3,111
2016-11-14 05:55:06,15.7,0.3,15.4,0.1,2.3,112
2016-11-14 06:00:06,15.6,-1.8,17.4,0.0,2.3,111
2016-11-14 06:05:02,15.5,-0.7,16.2,0.0,2.3,73
2016-11-14 06:10:02,15.5,1.2,14.3,0.1,2.3,111
2016-11-14 06:15:02,15.5,2.4,13.2,0.1,2.3,111
2016-11-14 06:20:02,15.6,3.4,12.2,0.2,2.3,111
2016-11-14 06:25:02,15.7,3.5,12.1,0.3,2.3,112
2016-11-14 06:30:02,15.8,3.7,12.0,0.4,2.3,111
2016-11-14 06:35:02,15.8,3.8,12.0,0.7,2.3,112
2016-11-14 06:40:02,15.8,3.9,11.9,1.4,2.3,111
2016-11-14 06:45:02,15.9,3.9,12.0,2.6,2.3,112
2016-11-14 06:50:02,15.9,4.6,11.4,4.6,2.3,112
2016-11-14 06:55:02,16.1,5.0,11.1,8.3,2.3,112
2016-11-14 07:00:02,16.2,4.9,11.3,14.4,2.3,111
2016-11-14 07:05:02,16.2,4.8,11.4,19.9,3.4,112
2016-11-14 07:10:02,16.0,4.3,11.7,23.5,3.0,112
2016-11-14 07:15:02,15.8,4.3,11.5,26.0,2.4,111
2016-11-14 07:20:02,15.8,4.8,11.0,27.8,2.4,112
2016-11-14 07:25:02,15.9,4.6,11.3,28.8,2.4,111
2016-11-14 07:30:02,16.0,5.0,11.0,29.3,2.4,112
2016-11-14 07:35:02,15.7,3.9,11.9,30.1,2.4,112
2016-11-14 07:40:02,16.1,3.9,12.1,30.6,2.4,111
2016-11-14 07:45:02,16.0,3.6,12.4,31.1,2.4,112
2016-11-14 07:50:02,16.1,3.8,12.3,31.5,2.3,111
2016-11-14 07:55:02,16.1,4.3,11.8,31.8,2.3,112
2016-11-14 08:00:02,16.2,4.9,11.3,31.9,2.3,111
2016-11-14 08:05:02,16.3,4.5,11.7,32.0,2.3,112
2016-11-14 08:10:02,16.4,3.9,12.5,32.1,2.3,111
2016-11-14 08:15:02,16.5,3.6,12.9,32.1,2.3,112
2016-11-14 08:20:02,16.6,2.3,14.3,32.1,2.3,111
2016-11-14 08:25:02,16.8,3.6,13.2,32.1,2.3,111
2016-11-14 08:30:02,16.9,4.9,12.1,32.1,2.5,112
2016-11-14 08:35:02,17.0,4.6,12.3,32.1,2.4,112
2016-11-14 08:40:02,16.9,5.4,11.6,32.0,2.3,112
2016-11-14 08:45:02,16.9,5.3,11.6,32.0,2.4,111
2016-11-14 08:50:02,16.9,5.1,11.8,32.0,2.4,112
2016-11-14 08:55:02,17.0,5.5,11.5,32.1,2.3,112
2016-11-14 09:00:02,17.1,5.6,11.5,32.2,2.2,111
2016-11-14 09:05:02,17.2,5.6,11.6,32.3,2.3,112
2016-11-14 09:10:02,17.3,5.6,11.7,32.4,2.2,112
2016-11-14 09:15:02,17.6,6.3,11.3,32.4,2.3,111
2016-11-14 09:20:02,17.6,5.7,12.0,32.4,2.3,112
2016-11-14 09:25:02,17.3,5.6,11.7,32.5,2.3,111
2016-11-14 09:30:02,17.7,5.4,12.3,32.5,2.3,112
2016-11-14 09:35:02,17.8,5.7,12.1,32.4,3.7,112
2016-11-14 09:40:02,17.7,5.4,12.3,32.4,2.7,111
2016-11-14 09:45:02,17.6,5.3,12.3,32.4,2.6,112
2016-11-14 09:50:02,17.5,4.7,12.9,32.4,2.5,112
2016-11-14 09:55:02,17.6,4.0,13.7,32.4,2.6,112
2016-11-14 10:00:02,17.7,3.6,14.1,32.4,2.7,111
2016-11-14 10:05:02,17.8,4.8,12.9,32.4,2.7,112
2016-11-14 10:10:02,17.8,4.9,12.9,32.4,2.7,112
2016-11-14 10:15:02,17.9,3.3,14.6,32.4,2.7,111
2016-11-14 10:20:02,17.9,1.8,16.1,32.4,2.7,112
2016-11-14 10:25:02,17.9,3.2,14.7,32.4,2.7,111
2016-11-14 10:30:02,18.0,4.7,13.2,32.4,2.7,112
2016-11-14 10:35:02,18.2,4.5,13.7,32.4,2.5,112
2016-11-14 10:40:02,18.3,2.9,15.4,32.5,2.3,111
2016-11-14 10:45:02,18.5,2.5,15.9,32.5,2.3,111
2016-11-14 10:50:02,18.6,4.3,14.3,32.5,2.3,111
2016-11-14 10:55:02,18.7,5.3,13.4,32.5,2.4,112
2016-11-14 11:00:02,18.5,5.3,13.2,32.5,2.3,112
2016-11-14 11:05:02,18.8,5.0,13.9,32.5,2.3,111
2016-11-14 11:10:02,18.9,6.2,12.6,32.5,2.3,112
2016-11-14 11:15:02,18.8,6.1,12.8,32.4,2.3,111
2016-11-14 11:20:02,18.8,6.2,12.6,32.4,2.3,112
2016-11-14 11:25:02,18.8,6.8,12.0,32.4,2.4,111
2016-11-14 11:30:02,18.9,7.3,11.6,32.4,2.3,111
2016-11-14 11:35:02,18.9,7.4,11.5,32.4,2.3,112
2016-11-14 11:40:02,18.9,6.8,12.2,32.4,2.3,112
2016-11-14 11:45:02,18.9,7.1,11.8,32.3,2.3,111
2016-11-14 11:50:02,18.8,7.1,11.7,32.2,3.2,112
2016-11-14 11:55:02,18.7,7.2,11.5,32.3,3.1,111
2016-11-14 12:00:02,18.6,7.9,10.7,32.3,2.4,112
2016-11-14 12:05:02,18.8,8.1,10.7,32.4,2.3,111
2016-11-14 12:10:02,18.8,8.2,10.5,32.5,2.3,112
2016-11-14 12:15:02,19.4,7.7,11.7,32.5,2.0,111
2016-11-14 12:20:02,19.5,7.3,12.2,32.4,1.9,112
2016-11-14 12:25:02,19.6,7.0,12.6,32.5,2.0,111
2016-11-14 12:30:02,19.6,7.5,12.2,32.4,2.1,112
2016-11-14 12:35:02,19.7,7.7,12.1,32.4,2.2,111
2016-11-14 12:40:02,19.7,7.7,12.1,32.4,2.2,112
2016-11-14 12:45:02,19.7,8.0,11.7,32.4,2.2,111
2016-11-14 12:50:02,19.7,8.3,11.4,32.4,2.2,111
2016-11-14 12:55:02,19.6,8.2,11.4,32.4,2.1,112
2016-11-14 13:00:02,19.6,8.1,11.5,32.3,2.2,111
2016-11-14 13:05:02,19.6,7.8,11.7,32.3,2.2,112
2016-11-14 13:10:02,19.4,7.7,11.8,32.2,2.0,111
2016-11-14 13:15:02,19.3,8.0,11.4,32.2,1.9,112
2016-11-14 13:20:02,19.3,8.2,11.1,32.2,1.9,111
2016-11-14 13:25:02,19.3,8.1,11.1,32.2,1.9,112
2016-11-14 13:30:02,19.3,8.2,11.0,32.2,1.9,111
2016-11-14 13:35:02,19.3,8.4,10.8,32.3,1.9,111
2016-11-14 13:40:02,18.9,8.0,10.9,32.3,1.9,112
2016-11-14 13:45:02,19.2,7.1,12.1,32.3,6.6,111
2016-11-14 13:50:02,19.0,7.3,11.7,32.3,3.3,112
2016-11-14 13:55:02,18.8,6.3,12.4,32.3,7.4,111
2016-11-14 14:00:02,18.7,6.3,12.3,32.3,5.7,112
2016-11-14 14:05:02,18.5,5.4,13.1,32.4,6.8,111
2016-11-14 14:10:02,18.4,5.4,13.0,32.3,5.6,112
2016-11-14 14:15:02,18.3,5.6,12.7,32.3,4.7,111
2016-11-14 14:20:02,18.2,6.5,11.7,32.3,2.8,112
2016-11-14 14:25:02,18.2,6.9,11.2,32.2,2.4,111
2016-11-14 14:30:02,18.1,6.6,11.5,32.2,2.3,111
2016-11-14 14:35:02,18.1,6.8,11.3,32.1,2.4,111
2016-11-14 14:40:02,18.3,6.4,11.9,32.2,2.4,112
2016-11-14 14:45:02,18.4,4.8,13.5,32.3,2.5,112
2016-11-14 14:50:02,18.5,6.0,12.4,32.3,2.4,111
2016-11-14 14:55:02,18.6,6.8,11.8,32.4,2.4,112
2016-11-14 15:00:02,18.7,6.3,12.5,32.3,2.3,111
2016-11-14 15:05:02,18.7,6.0,12.8,32.3,2.3,112
2016-11-14 15:10:02,18.7,5.9,12.8,32.3,2.3,111
2016-11-14 15:15:02,18.7,7.0,11.7,32.2,2.3,112
2016-11-14 15:20:02,18.6,7.1,11.6,32.1,2.4,111
2016-11-14 15:25:02,18.6,6.7,11.9,32.1,2.4,112
2016-11-14 15:30:02,18.6,7.0,11.5,31.9,2.4,111
2016-11-14 15:35:02,18.5,7.5,11.1,31.6,2.4,112
2016-11-14 15:40:02,18.5,7.2,11.3,31.1,2.5,111
2016-11-14 15:45:02,18.4,7.3,11.2,30.9,2.7,112
2016-11-14 15:50:02,18.4,6.3,12.1,31.0,5.6,111
2016-11-14 15:55:02,18.2,5.8,12.4,31.2,6.9,112
2016-11-14 16:00:02,18.1,6.3,11.9,30.9,3.9,111
2016-11-14 16:05:02,18.0,6.7,11.3,30.4,3.2,112
2016-11-14 16:10:02,17.9,7.0,11.0,29.7,3.1,111
2016-11-14 16:15:02,17.9,7.1,10.8,29.4,2.6,112
2016-11-14 16:20:02,17.9,7.0,10.8,28.7,2.7,111
2016-11-14 16:25:02,17.9,6.9,11.0,26.5,3.0,112
2016-11-14 16:30:02,17.9,7.0,10.9,23.9,2.7,111
2016-11-14 16:35:02,17.9,7.3,10.6,20.6,2.6,112
2016-11-14 16:40:02,17.9,7.4,10.5,15.4,2.5,111
2016-11-14 16:45:02,18.0,7.4,10.6,8.8,2.4,111
2016-11-14 16:50:02,18.0,7.4,10.7,4.6,2.5,112
2016-11-14 16:55:02,18.1,7.4,10.7,2.2,2.5,112
2016-11-14 17:00:02,18.1,7.4,10.8,1.0,2.5,111
2016-11-14 17:05:02,18.1,7.5,10.7,0.4,2.9,112
2016-11-14 17:10:02,18.1,7.3,10.8,0.2,2.7,111
2016-11-14 17:15:02,18.1,7.2,10.8,0.1,2.6,112
2016-11-14 17:20:02,18.1,7.5,10.6,0.0,2.5,111
2016-11-14 17:25:02,18.1,7.3,10.8,0.0,2.4,112
2016-11-14 17:30:02,18.1,7.4,10.7,0.0,2.4,111
2016-11-14 17:35:02,18.1,7.3,10.9,0.0,2.5,112
2016-11-14 17:40:03,18.1,7.3,10.8,0.0,2.4,112
2016-11-14 17:45:03,18.2,7.4,10.8,0.0,2.4,111
2016-11-14 17:50:03,18.2,7.4,10.7,0.0,2.3,112
2016-11-14 17:55:03,18.2,7.7,10.5,0.0,2.4,111
2016-11-14 18:00:03,18.2,7.7,10.5,0.0,2.3,112
2016-11-14 18:05:03,18.2,7.9,10.2,0.0,2.3,112
2016-11-14 18:10:03,18.1,7.6,10.5,0.0,2.4,111
2016-11-14 18:15:03,18.1,7.6,10.6,0.0,2.4,112
2016-11-14 18:20:03,18.1,7.5,10.6,0.1,2.3,111
2016-11-14 18:25:03,18.1,7.5,10.6,0.1,2.3,112
2016-11-14 18:30:03,18.1,7.5,10.6,0.1,2.3,111
2016-11-14 18:35:03,18.1,7.4,10.7,0.1,2.4,112
2016-11-14 18:40:03,18.2,7.3,10.9,0.1,2.3,111
2016-11-14 18:45:03,18.2,7.3,10.9,0.1,2.4,112
2016-11-14 18:50:03,18.2,7.4,10.7,0.1,2.4,111
2016-11-14 18:55:03,18.2,7.4,10.8,0.1,2.4,112
2016-11-14 19:00:03,18.2,7.4,10.8,0.1,2.4,112
2016-11-14 19:05:03,18.2,7.3,10.9,0.1,2.4,111
2016-11-14 19:10:03,18.2,7.6,10.6,0.1,2.4,111
2016-11-14 19:15:03,18.2,7.6,10.6,0.1,2.4,112
2016-11-14 19:20:03,18.2,7.5,10.7,0.1,2.3,112
2016-11-14 19:25:03,18.2,7.6,10.7,0.1,2.4,112
2016-11-14 19:30:03,18.2,7.6,10.7,0.1,2.4,111
2016-11-14 19:35:03,18.2,7.5,10.8,0.0,2.4,112
2016-11-14 19:40:03,18.2,7.6,10.6,0.1,2.4,111
2016-11-14 19:45:03,18.2,7.6,10.6,0.1,2.4,112
2016-11-14 19:50:03,18.2,7.5,10.6,0.1,2.4,111
2016-11-14 19:55:03,18.2,7.7,10.5,0.1,2.4,111
2016-11-14 20:00:03,18.2,7.6,10.6,0.1,2.3,112
2016-11-14 20:05:03,18.2,7.4,10.7,0.2,2.4,111
2016-11-14 20:10:03,18.1,7.5,10.7,0.2,2.3,112
2016-11-14 20:15:03,18.1,7.7,10.5,0.1,2.3,111
2016-11-14 20:20:03,18.1,7.7,10.4,0.1,2.3,112
2016-11-14 20:25:03,18.5,7.8,10.6,0.2,2.3,111
2016-11-14 20:30:03,18.2,7.8,10.4,0.2,2.3,112
2016-11-14 20:35:03,18.2,8.0,10.2,0.2,2.3,112
2016-11-14 20:40:03,18.2,7.9,10.3,0.2,2.3,111
2016-11-14 20:45:03,18.2,7.9,10.3,0.2,2.4,111
2016-11-14 20:50:03,18.3,7.8,10.5,0.2,2.4,111
2016-11-14 20:55:03,18.3,7.8,10.5,0.2,2.4,111
2016-11-14 21:00:03,18.3,7.7,10.6,0.2,2.4,112
2016-11-14 21:05:03,18.3,7.5,10.7,0.2,2.4,111
2016-11-14 21:10:03,18.3,7.6,10.6,0.2,2.4,112
2016-11-14 21:15:03,18.3,7.6,10.7,0.2,2.4,111
2016-11-14 21:20:03,18.3,7.5,10.7,0.2,2.4,112
2016-11-14 21:25:03,18.3,7.6,10.7,0.2,2.4,111
2016-11-14 21:30:03,18.3,7.7,10.6,0.2,2.4,112
2016-11-14 21:35:03,18.3,7.6,10.7,0.2,2.4,111
2016-11-14 21:40:03,18.3,7.7,10.6,0.2,2.4,112
2016-11-14 21:45:03,18.3,7.7,10.6,0.2,2.4,111
2016-11-14 21:50:03,18.3,7.9,10.4,0.2,2.4,112
2016-11-14 21:55:03,18.4,7.9,10.4,0.2,2.4,111
2016-11-14 22:00:03,18.4,7.8,10.5,0.2,2.4,111
2016-11-14 22:05:03,18.0,8.0,10.1,0.2,2.4,112
2016-11-14 22:10:03,18.4,7.9,10.4,0.2,2.4,112
2016-11-14 22:15:03,18.4,7.8,10.5,0.3,2.5,111
2016-11-14 22:20:03,18.0,7.9,10.1,0.3,2.5,111
2016-11-14 22:25:03,18.4,7.9,10.6,0.3,2.4,112
2016-11-14 22:30:03,18.4,7.9,10.5,0.3,2.4,111
2016-11-14 22:35:03,18.4,7.7,10.7,0.3,2.5,112
2016-11-14 22:40:03,18.4,7.7,10.7,0.4,2.5,111
2016-11-14 22:45:03,18.4,7.7,10.6,0.4,2.5,112
2016-11-14 22:50:03,18.4,7.9,10.5,0.3,2.5,111
2016-11-14 22:55:03,18.4,8.0,10.4,0.3,2.5,112
2016-11-14 23:00:03,18.4,7.9,10.5,0.3,2.5,111
2016-11-14 23:05:03,18.5,8.0,10.5,0.3,2.5,112
2016-11-14 23:10:03,18.5,8.0,10.4,0.3,2.5,112
2016-11-14 23:15:03,18.5,8.1,10.4,0.4,2.5,111
2016-11-14 23:20:03,18.5,8.2,10.3,0.4,2.5,112
2016-11-14 23:25:03,18.5,8.2,10.3,0.3,2.4,111
2016-11-14 23:30:03,18.5,8.1,10.4,0.4,2.4,112
2016-11-14 23:35:03,18.5,8.1,10.4,0.3,2.4,112
2016-11-14 23:40:03,18.5,8.1,10.4,0.3,2.4,111
2016-11-14 23:45:03,18.5,8.0,10.5,0.3,2.5,111
2016-11-14 23:50:03,18.5,8.0,10.5,0.4,2.5,112
2016-11-14 23:55:03,18.4,8.0,10.4,0.4,2.5,111
